Info: BCA BNI BRI CIMBNIAGA MANDIRI PERMATA ONLINE - TELAH HADIR BANK PERMATA & KOSPIN JASA UNTUK MEMPERMUDAH DEPOSIT DAN WITHDRAW ANDA..Dapatkan Kesempatan Bonus Lucky spin & Special Mistery Box Dengan Aktif Bermain Setiap Hari di POKER88.ASIA & Akses selalu melalui website resmi kami http://pk88asia.co/
REGISTER JACKPOT DEPOSIT REFERRAL DOWNLOAD PROMOSI CONTACT VIP
JACKPOT



   

Jackpot Winner Ceme

Jackpot hanya dapat di beli di awal sebelum periode tersebut berjalan dan jika berhasil maka anda dapat melihat di sisi kiri bawah atau kiri atas akan terdapat notifikasi bahwa jackpot anda berhasil di beli.

Jika anda membeli jackpot di tengah permainan maka pembelian jackpot akan berlaku untuk periode selanjutnya.

Jackpot dilihat dari gabungan kartu pemain dengan kartu bandar. Bandar harus membeli jackpot sebanyak jumlah player yang sedang duduk. Sebagai contoh bila terdapat 3 pemain duduk bermain, dan bandar memutuskan untuk membeli jackpot Rp 1.000, maka pada periode tersebut bandar akan membeli jackpot sebanyak 3xRp1.000 = Rp3.000.

Jackpot bukanlah suatu keharusan untuk dibeli, namun kami memberikan suatu fitur tambahan untuk member tercinta dari www.kitapoker88.com.

Terdapat tiga pilihan harga jackpot yang bisa anda beli yaitu :100,500 dan 1000 rupiah.

Hadiah dari Multi jackpot system www.kitapoker88.com

  1. Murni Kecil x 50 harga jackpot yang anda beli.
      (contoH:anda membeli 1000 maka:1000 X 50 = 50.000)
  2. Murni Besar x 50 harga jackpot yang anda beli
      (contoH:anda membeli 1000 maka:1000 X 50 = 50.000)
  3. BALAK x 200 harga jackpot yang anda beli
      (contoH:anda membeli 1000 maka:1000 X 200 = 200.000)
  4. ENAM DEWA x 6666 harga jackpot yang anda beli
      (contoH:anda membeli 1000 maka:1000 X 6666 = 6.666.000)

Demikian adalah penjelasan dari Multi Jackpot www.kitapoker88.com terima kasih dan selamat bermain salam hoki dari kami


Jackpot Winner

TOP ENAM DEWA
No. Tanggal Nama Price Win
1 15/11 19:13 TAPINDA murni enam 6,666,000
2 15/11 19:13 BRAM701 murni enam 6,666,000
3 15/11 18:59 BLENDES murni enam 6,666,000
4 15/11 18:59 AZIZ2017 murni enam 666,600
5 15/11 18:52 KASUGE00 murni enam 6,666,000
TOP BALAK
No. Tanggal Nama Price Win
1 15/11 19:16 JONO861 balak 100,000
2 15/11 19:15 B662C539 balak 20,000
3 15/11 19:15 SIPUTZX balak 200,000
4 15/11 19:14 ODIL19 balak 20,000
5 15/11 19:13 DERS168 balak 200,000
LATEST JACKPOT
No. Tanggal Nama Price Win
1 15/11 19:16 ERWIN11 murni kecil 50,000
2 15/11 19:16 K3M3N murni kecil 50,000
3 15/11 19:16 WA_19992 murni kecil 5,000
4 15/11 19:16 JONO861 balak 100,000
5 15/11 19:16 BEKOK_22 murni kecil 50,000
6 15/11 19:16 NAREK99 murni kecil 5,000
7 15/11 19:16 BAKSO_BAKA murni besar 5,000
8 15/11 19:16 ORNGKYA89 murni kecil 50,000
9 15/11 19:16 MYJOJO murni kecil 5,000
10 15/11 19:16 TNJ_SNG87 murni kecil 5,000
11 15/11 19:16 MHI13607 murni kecil 25,000
12 15/11 19:16 DERS168 murni kecil 50,000
13 15/11 19:16 PRIVATER99 murni besar 50,000
14 15/11 19:16 DENICK789 murni besar 25,000
15 15/11 19:16 AAH0KY murni kecil 5,000
16 15/11 19:16 AGE82 murni kecil 25,000
17 15/11 19:16 TEMPE8790 murni kecil 50,000
18 15/11 19:15 PWK murni kecil 50,000
19 15/11 19:15 AJI2308 murni kecil 50,000
20 15/11 19:15 XVIP99 murni kecil 50,000
21 15/11 19:15 OMADI666 murni besar 50,000
22 15/11 19:15 BOSBABY8 murni kecil 25,000
23 15/11 19:15 PEYEK40 murni kecil 50,000
24 15/11 19:15 ANGSA738 murni kecil 50,000
25 15/11 19:15 CILACAP999 murni besar 50,000
26 15/11 19:15 ICAD012 murni besar 50,000
27 15/11 19:15 TEDDYBEARS murni besar 5,000
28 15/11 19:15 B662C539 balak 20,000
29 15/11 19:15 BLE02 murni besar 50,000
30 15/11 19:15 BAHBOT22 murni besar 25,000
31 15/11 19:15 V3NDY murni besar 5,000
32 15/11 19:15 BAHBOT22 murni besar 25,000
33 15/11 19:15 ALIMUST murni besar 25,000
34 15/11 19:15 RIDUAN1998 murni besar 50,000
35 15/11 19:15 FIANMBSSS murni kecil 50,000
36 15/11 19:15 DUMA17 murni besar 25,000
37 15/11 19:15 NYAYUR_16 murni besar 50,000
38 15/11 19:15 BIGBULLS murni besar 25,000
39 15/11 19:15 SIPUTZX balak 200,000
40 15/11 19:15 SIPUTZX murni besar 50,000
41 15/11 19:15 SONI2266 murni kecil 50,000
42 15/11 19:15 JACKPOT126 murni kecil 25,000
43 15/11 19:14 MHI13607 murni kecil 25,000
44 15/11 19:14 JOYGELLO88 murni kecil 25,000
45 15/11 19:14 PETONG_83 murni besar 5,000
46 15/11 19:14 ABIMANYUU9 murni kecil 5,000
47 15/11 19:14 MRWIJAYA33 murni besar 50,000
48 15/11 19:14 WEULING murni kecil 50,000
49 15/11 19:14 SONI2266 murni kecil 50,000
50 15/11 19:14 TIKOTI3033 murni kecil 50,000
Dewa.FM